軌道要素
Epoch 2005 July 9.0 TT = JDT 2453560.5
T 2005 June 20.84460 TT MPC
q 1.2751385 (2000.0) P Q
n 0.04584271 Peri. 47.07586 +0.68260156 -0.73038652
a 7.7319533 Node 1.39952 -0.34124491 -0.34797423
e 0.8350820 Incl. 95.69685 +0.64622521 +0.58774950
P 21.50
>From 56 observations 1983 Nov. 23-2004 Nov. 17, mean residual 0".92.
|